SDM601 ULLI-UUWW

Flight info

Callsign SDM601
Flight time 1h 18m
Altitude 37000
Route SUGIN1C SUGIN T873 NIRGI T73 DESUD T834 ADOKU/K0865F290 T834 BEKIP BEKIP3B
Aircraft A320/M-SDE3FGHIRWY/LB1

Departure

Time 2026-05-07 14:27
Airport Pulkovo Airport (ULLI)

Arrival

Time 2026-05-07 15:45
Airport Vnukovo International Airport (UUWW)
Time Latitude Longitude Altitude Speed Heading
2026-05-07 14:15 59.79989 30.26433 83 ft 0 kts 106°
2026-05-07 14:20 59.79979 30.26474 83 ft 12 kts 127°
2026-05-07 14:20 59.79895 30.26464 82 ft 12 kts 198°
2026-05-07 14:20 59.79820 30.26420 85 ft 10 kts 195°
2026-05-07 14:20 59.79755 30.26384 82 ft 9 kts 196°
2026-05-07 14:21 59.79694 30.26348 84 ft 12 kts 196°
2026-05-07 14:21 59.79606 30.26296 83 ft 12 kts 196°
2026-05-07 14:21 59.79535 30.26247 84 ft 9 kts 216°
2026-05-07 14:21 59.79531 30.26126 86 ft 12 kts 285°
2026-05-07 14:22 59.79554 30.25962 86 ft 17 kts 285°
2026-05-07 14:22 59.79594 30.25700 85 ft 20 kts 287°
2026-05-07 14:22 59.79634 30.25435 83 ft 20 kts 286°
2026-05-07 14:22 59.79673 30.25164 87 ft 20 kts 286°
2026-05-07 14:23 59.79711 30.24900 83 ft 20 kts 286°
2026-05-07 14:23 59.79750 30.24632 83 ft 21 kts 286°
2026-05-07 14:23 59.79791 30.24357 82 ft 21 kts 287°
2026-05-07 14:23 59.79836 30.24067 82 ft 23 kts 287°
2026-05-07 14:24 59.79882 30.23753 80 ft 24 kts 287°
2026-05-07 14:24 59.79932 30.23418 83 ft 26 kts 286°
2026-05-07 14:24 59.79984 30.23061 79 ft 28 kts 286°
2026-05-07 14:24 59.80043 30.22683 78 ft 29 kts 287°
2026-05-07 14:25 59.80101 30.22285 76 ft 31 kts 285°
2026-05-07 14:25 59.80049 30.21961 70 ft 25 kts 225°
2026-05-07 14:25 59.79971 30.21960 75 ft 3 kts 97°
2026-05-07 14:25 59.79969 30.21989 71 ft 1 kts 105°
2026-05-07 14:26 59.79953 30.22092 73 ft 32 kts 109°
2026-05-07 14:26 59.79818 30.22995 82 ft 100 kts 106°
2026-05-07 14:26 59.79564 30.24708 88 ft 153 kts 106°
2026-05-07 14:26 59.79223 30.26808 571 ft 162 kts 108°
2026-05-07 14:27 59.78868 30.28964 1238 ft 166 kts 105°
2026-05-07 14:27 59.78532 30.31164 1946 ft 168 kts 103°
2026-05-07 14:27 59.78191 30.33531 2323 ft 189 kts 104°
2026-05-07 14:27 59.77809 30.36204 2627 ft 214 kts 104°
2026-05-07 14:28 59.77376 30.39211 3052 ft 238 kts 104°
2026-05-07 14:28 59.76908 30.42408 3745 ft 249 kts 104°
2026-05-07 14:28 59.76413 30.45742 4677 ft 252 kts 104°
2026-05-07 14:28 59.75909 30.49109 5597 ft 256 kts 105°
2026-05-07 14:29 59.75396 30.52514 6510 ft 260 kts 106°
2026-05-07 14:29 59.74874 30.55979 7348 ft 264 kts 105°
2026-05-07 14:29 59.74365 30.59514 8159 ft 268 kts 104°
2026-05-07 14:29 59.73877 30.63141 8920 ft 276 kts 104°
2026-05-07 14:30 59.73386 30.66876 9680 ft 283 kts 103°
2026-05-07 14:30 59.72884 30.70719 10326 ft 294 kts 104°
2026-05-07 14:30 59.72356 30.74741 10574 ft 317 kts 104°
2026-05-07 14:30 59.71773 30.79127 10788 ft 341 kts 104°
2026-05-07 14:31 59.71142 30.83815 11007 ft 362 kts 105°
2026-05-07 14:31 59.70478 30.88715 11504 ft 372 kts 105°
2026-05-07 14:31 59.69795 30.93734 12067 ft 380 kts 106°
2026-05-07 14:31 59.69097 30.98829 12682 ft 387 kts 107°
2026-05-07 14:32 59.68389 31.03956 13299 ft 393 kts 107°
2026-05-07 14:32 59.67663 31.09219 13911 ft 399 kts 107°
2026-05-07 14:32 59.66924 31.14568 14456 ft 404 kts 108°
2026-05-07 14:32 59.66173 31.19988 15000 ft 410 kts 108°
2026-05-07 14:33 59.65409 31.25473 15542 ft 415 kts 108°
2026-05-07 14:33 59.64634 31.31012 16087 ft 420 kts 108°
2026-05-07 14:33 59.63849 31.36619 16626 ft 425 kts 108°
2026-05-07 14:33 59.63064 31.42224 17152 ft 431 kts 108°
2026-05-07 14:34 59.62257 31.47958 17728 ft 436 kts 108°
2026-05-07 14:34 59.61434 31.53764 18237 ft 441 kts 109°
2026-05-07 14:34 59.60601 31.59620 18687 ft 446 kts 109°
2026-05-07 14:34 59.59759 31.65560 19145 ft 451 kts 109°
2026-05-07 14:35 59.58907 31.71559 19596 ft 455 kts 110°
2026-05-07 14:35 59.58046 31.77600 20059 ft 459 kts 110°
2026-05-07 14:35 59.57168 31.83727 20509 ft 463 kts 110°
2026-05-07 14:35 59.56281 31.89868 20946 ft 467 kts 110°
2026-05-07 14:36 59.55381 31.96052 21371 ft 471 kts 111°
2026-05-07 14:36 59.54443 32.02184 21776 ft 472 kts 115°
2026-05-07 14:36 59.53141 32.08092 22177 ft 469 kts 124°
2026-05-07 14:36 59.51439 32.13556 22573 ft 464 kts 133°
2026-05-07 14:37 59.49397 32.18444 22930 ft 459 kts 141°
2026-05-07 14:37 59.44880 32.27288 23673 ft 463 kts 143°
2026-05-07 14:37 59.42582 32.31760 24006 ft 466 kts 143°
2026-05-07 14:38 59.40275 32.36247 24361 ft 467 kts 143°
2026-05-07 14:38 59.37960 32.40744 24710 ft 468 kts 143°
2026-05-07 14:38 59.35642 32.45246 25048 ft 470 kts 143°
2026-05-07 14:38 59.33313 32.49762 25376 ft 469 kts 143°
2026-05-07 14:39 59.30994 32.54250 25824 ft 467 kts 144°
2026-05-07 14:39 59.28702 32.58669 26153 ft 468 kts 144°
2026-05-07 14:39 59.26368 32.63147 26415 ft 469 kts 144°
2026-05-07 14:39 59.24026 32.67622 26680 ft 471 kts 144°
2026-05-07 14:40 59.21681 32.72095 26940 ft 472 kts 144°
2026-05-07 14:40 59.19322 32.76603 27190 ft 474 kts 144°
2026-05-07 14:40 59.16961 32.81114 27438 ft 476 kts 144°
2026-05-07 14:40 59.14618 32.85583 27674 ft 477 kts 144°
2026-05-07 14:41 59.12244 32.90102 28001 ft 476 kts 144°
2026-05-07 14:41 59.09864 32.94618 28346 ft 475 kts 144°
2026-05-07 14:41 59.07499 32.99091 28697 ft 474 kts 144°
2026-05-07 14:41 59.05128 33.03566 29051 ft 473 kts 144°
2026-05-07 14:42 59.02764 33.08014 29410 ft 472 kts 144°
2026-05-07 14:42 59.00405 33.12447 29771 ft 471 kts 144°
2026-05-07 14:42 58.98078 33.16818 30120 ft 470 kts 145°
2026-05-07 14:42 58.95721 33.21238 30419 ft 470 kts 145°
2026-05-07 14:43 58.93371 33.25628 30713 ft 469 kts 145°
2026-05-07 14:43 58.91019 33.30014 30994 ft 468 kts 145°
2026-05-07 14:43 58.88672 33.34388 31275 ft 468 kts 145°
2026-05-07 14:43 58.86320 33.38753 31579 ft 467 kts 145°
2026-05-07 14:44 58.83970 33.43107 31866 ft 467 kts 145°
2026-05-07 14:44 58.81612 33.47469 32019 ft 470 kts 145°
2026-05-07 14:44 58.79249 33.51838 32233 ft 471 kts 145°
2026-05-07 14:44 58.76904 33.56167 32495 ft 471 kts 145°
2026-05-07 14:45 58.74534 33.60532 32771 ft 471 kts 145°
2026-05-07 14:45 58.72164 33.64887 33068 ft 470 kts 145°
2026-05-07 14:45 58.69785 33.69246 33368 ft 470 kts 145°
2026-05-07 14:45 58.67415 33.73569 33667 ft 469 kts 145°
2026-05-07 14:46 58.65045 33.77887 33964 ft 468 kts 145°
2026-05-07 14:46 58.62710 33.82138 34219 ft 468 kts 145°
2026-05-07 14:46 58.60340 33.86446 34403 ft 468 kts 144°
2026-05-07 14:46 58.57957 33.90771 34540 ft 471 kts 144°
2026-05-07 14:47 58.55564 33.95103 34698 ft 473 kts 144°
2026-05-07 14:47 58.53199 33.99379 34904 ft 473 kts 144°
2026-05-07 14:47 58.50797 34.03711 35124 ft 473 kts 144°
2026-05-07 14:47 58.48391 34.08039 35356 ft 473 kts 144°
2026-05-07 14:48 58.45997 34.12340 35560 ft 472 kts 144°
2026-05-07 14:48 58.43594 34.16645 35774 ft 472 kts 144°
2026-05-07 14:48 58.41200 34.20928 35979 ft 472 kts 144°
2026-05-07 14:48 58.38798 34.25211 36180 ft 471 kts 144°
2026-05-07 14:49 58.36433 34.29418 36334 ft 472 kts 143°
2026-05-07 14:49 58.34028 34.33700 36500 ft 472 kts 143°
2026-05-07 14:49 58.31627 34.37965 36662 ft 472 kts 143°
2026-05-07 14:49 58.29219 34.42235 36815 ft 473 kts 143°
2026-05-07 14:50 58.26813 34.46494 36947 ft 473 kts 143°
2026-05-07 14:50 58.24392 34.50768 36975 ft 475 kts 143°
2026-05-07 14:50 58.20348 34.57871 36972 ft 476 kts 144°
2026-05-07 14:51 58.15361 34.66106 36966 ft 473 kts 147°
2026-05-07 14:51 58.10260 34.74004 36966 ft 473 kts 147°
2026-05-07 14:52 58.05180 34.81854 36966 ft 474 kts 147°
2026-05-07 14:52 58.00102 34.89821 36957 ft 474 kts 146°
2026-05-07 14:53 57.95032 34.97800 36964 ft 475 kts 146°
2026-05-07 14:53 57.89941 35.05766 36920 ft 475 kts 146°
2026-05-07 14:54 57.84828 35.13701 36936 ft 475 kts 146°
2026-05-07 14:54 57.79748 35.21533 36947 ft 475 kts 146°
2026-05-07 14:55 57.74625 35.29446 36950 ft 475 kts 146°
2026-05-07 14:55 57.69535 35.37266 36952 ft 476 kts 146°
2026-05-07 14:56 57.64417 35.45095 36934 ft 475 kts 146°
2026-05-07 14:56 57.58977 35.51823 36943 ft 463 kts 161°
2026-05-07 14:57 57.52940 35.55700 36949 ft 456 kts 168°
2026-05-07 14:57 57.46906 35.59225 36939 ft 457 kts 168°
2026-05-07 14:58 57.40796 35.62792 36945 ft 457 kts 168°
2026-05-07 14:58 57.34780 35.66264 36886 ft 447 kts 168°
2026-05-07 14:59 57.31872 35.67958 36914 ft 430 kts 168°
2026-05-07 14:59 57.29057 35.69533 36912 ft 415 kts 174°
2026-05-07 14:59 57.26256 35.70048 36915 ft 398 kts 189°
2026-05-07 14:59 57.23574 35.69200 36903 ft 386 kts 204°
2026-05-07 15:00 57.21175 35.67148 36903 ft 377 kts 218°
2026-05-07 15:00 57.19181 35.64102 36906 ft 370 kts 232°
2026-05-07 15:00 57.17681 35.60296 36906 ft 365 kts 244°
2026-05-07 15:00 57.16738 35.55971 36906 ft 363 kts 257°
2026-05-07 15:01 57.16392 35.51416 36906 ft 364 kts 269°
2026-05-07 15:01 57.16662 35.46763 36894 ft 366 kts 282°
2026-05-07 15:01 57.17550 35.42355 36894 ft 370 kts 295°
2026-05-07 15:01 57.19029 35.38430 36921 ft 377 kts 308°
2026-05-07 15:02 57.21047 35.35249 36910 ft 386 kts 322°
2026-05-07 15:02 57.23451 35.33035 36913 ft 393 kts 332°
2026-05-07 15:02 57.28684 35.29694 36900 ft 399 kts 337°
2026-05-07 15:03 57.34046 35.26859 36912 ft 400 kts 337°
2026-05-07 15:03 57.36789 35.25754 36897 ft 408 kts 349°
2026-05-07 15:03 57.39625 35.25852 36908 ft 419 kts
2026-05-07 15:04 57.42446 35.27458 36905 ft 430 kts 22°
2026-05-07 15:04 57.44936 35.30623 36893 ft 439 kts 41°
2026-05-07 15:04 57.46829 35.35111 36887 ft 445 kts 61°
2026-05-07 15:04 57.47918 35.40490 36910 ft 447 kts 80°
2026-05-07 15:05 57.48096 35.46255 36934 ft 448 kts 99°
2026-05-07 15:05 57.47357 35.51856 36936 ft 444 kts 118°
2026-05-07 15:05 57.45810 35.56648 36925 ft 435 kts 136°
2026-05-07 15:05 57.43599 35.60356 36931 ft 423 kts 154°
2026-05-07 15:06 57.41004 35.62763 36939 ft 414 kts 165°
2026-05-07 15:06 57.38308 35.64616 36900 ft 412 kts 168°
2026-05-07 15:06 57.32832 35.67675 36918 ft 410 kts 170°
2026-05-07 15:07 57.27550 35.72050 36919 ft 435 kts 147°
2026-05-07 15:07 57.22641 35.78774 37060 ft 440 kts 150°
2026-05-07 15:08 57.20106 35.81937 36914 ft 448 kts 152°
2026-05-07 15:08 57.17486 35.85142 36930 ft 452 kts 152°
2026-05-07 15:08 57.12221 35.91671 36922 ft 459 kts 150°
2026-05-07 15:09 57.06950 35.98387 36629 ft 465 kts 150°
2026-05-07 15:09 57.04291 36.01802 35801 ft 467 kts 150°
2026-05-07 15:09 57.01624 36.05226 34955 ft 467 kts 150°
2026-05-07 15:10 56.98965 36.08630 34121 ft 466 kts 150°
2026-05-07 15:10 56.96298 36.12020 33183 ft 466 kts 150°
2026-05-07 15:10 56.93620 36.15405 32160 ft 467 kts 150°
2026-05-07 15:10 56.90940 36.18783 31123 ft 469 kts 150°
2026-05-07 15:11 56.88240 36.22180 30064 ft 472 kts 150°
2026-05-07 15:11 56.85526 36.25590 28808 ft 474 kts 150°
2026-05-07 15:11 56.82789 36.29024 27468 ft 477 kts 149°
2026-05-07 15:11 56.80080 36.32564 26197 ft 481 kts 147°
2026-05-07 15:12 56.77426 36.36337 24910 ft 485 kts 144°
2026-05-07 15:12 56.74865 36.40222 23888 ft 484 kts 143°
2026-05-07 15:12 56.72311 36.44214 22872 ft 480 kts 143°
2026-05-07 15:12 56.69794 36.48154 21941 ft 474 kts 143°
2026-05-07 15:13 56.67289 36.52022 20853 ft 472 kts 143°
2026-05-07 15:13 56.64780 36.55810 20169 ft 463 kts 144°
2026-05-07 15:13 56.62278 36.59442 19453 ft 454 kts 149°
2026-05-07 15:13 56.59555 36.62090 18763 ft 439 kts 164°
2026-05-07 15:14 56.56657 36.63661 18042 ft 430 kts 169°
2026-05-07 15:14 56.53812 36.65042 17261 ft 425 kts 170°
2026-05-07 15:14 56.50964 36.66393 16732 ft 418 kts 170°
2026-05-07 15:14 56.48156 36.67708 16878 ft 418 kts 170°
2026-05-07 15:15 56.45334 36.69017 16904 ft 418 kts 171°
2026-05-07 15:15 56.42515 36.70328 17000 ft 419 kts 170°
2026-05-07 15:15 56.39688 36.71648 17011 ft 419 kts 170°
2026-05-07 15:15 56.36858 36.72974 17010 ft 419 kts 170°
2026-05-07 15:16 56.34033 36.74302 16976 ft 418 kts 170°
2026-05-07 15:16 56.31226 36.75623 17003 ft 416 kts 170°
2026-05-07 15:16 56.28425 36.76935 17002 ft 415 kts 171°
2026-05-07 15:16 56.25625 36.78240 16982 ft 415 kts 170°
2026-05-07 15:17 56.22824 36.79545 17005 ft 416 kts 170°
2026-05-07 15:17 56.20046 36.80839 17001 ft 417 kts 170°
2026-05-07 15:17 56.17243 36.82145 17002 ft 417 kts 170°
2026-05-07 15:17 56.14430 36.83457 17002 ft 417 kts 170°
2026-05-07 15:18 56.11612 36.84766 17005 ft 417 kts 170°
2026-05-07 15:18 56.08824 36.86062 17000 ft 405 kts 170°
2026-05-07 15:18 56.06163 36.87309 17003 ft 386 kts 170°
2026-05-07 15:18 56.03628 36.88495 16997 ft 367 kts 171°
2026-05-07 15:19 56.01243 36.89604 16998 ft 350 kts 171°
2026-05-07 15:19 56.00491 36.89951 16997 ft 345 kts 171°
2026-05-07 15:19 55.98183 36.91007 16999 ft 339 kts 171°
2026-05-07 15:19 55.96569 36.91738 17000 ft 338 kts 172°
2026-05-07 15:20 55.96010 36.91991 17000 ft 338 kts 172°
2026-05-07 15:20 55.94295 36.92760 17001 ft 337 kts 173°
2026-05-07 15:20 55.92411 36.93255 16902 ft 333 kts 181°
2026-05-07 15:21 55.91485 36.93384 16767 ft 331 kts 181°
2026-05-07 15:21 55.90329 36.93544 16605 ft 330 kts 181°
2026-05-07 15:21 55.88661 36.93771 16429 ft 330 kts 181°
2026-05-07 15:21 55.86603 36.94048 16199 ft 330 kts 181°
2026-05-07 15:22 55.84318 36.94352 15943 ft 328 kts 181°
2026-05-07 15:22 55.82699 36.94568 15759 ft 327 kts 181°
2026-05-07 15:22 55.81118 36.94782 15582 ft 326 kts 181°
2026-05-07 15:22 55.78856 36.95092 15328 ft 325 kts 181°
2026-05-07 15:23 55.76624 36.95405 15162 ft 316 kts 181°
2026-05-07 15:23 55.74467 36.95712 15030 ft 306 kts 181°
2026-05-07 15:23 55.72366 36.96073 14778 ft 302 kts 179°
2026-05-07 15:23 55.70308 36.96589 14543 ft 299 kts 177°
2026-05-07 15:24 55.68254 36.97182 14250 ft 298 kts 176°
2026-05-07 15:24 55.66218 36.97795 13966 ft 296 kts 176°
2026-05-07 15:24 55.64189 36.98400 13674 ft 294 kts 176°
2026-05-07 15:24 55.62175 36.98990 13366 ft 292 kts 177°
2026-05-07 15:25 55.60165 36.99562 13072 ft 290 kts 177°
2026-05-07 15:25 55.58173 36.99756 12775 ft 285 kts 185°
2026-05-07 15:25 55.56192 36.99752 12452 ft 284 kts 185°
2026-05-07 15:25 55.54214 36.99749 12125 ft 282 kts 185°
2026-05-07 15:26 55.52253 36.99748 11813 ft 281 kts 185°
2026-05-07 15:26 55.50304 36.99747 11490 ft 280 kts 185°
2026-05-07 15:26 55.48353 36.99746 11183 ft 279 kts 185°
2026-05-07 15:26 55.46435 36.99746 10878 ft 278 kts 185°
2026-05-07 15:27 55.44498 36.99743 10566 ft 277 kts 185°
2026-05-07 15:27 55.42574 36.99888 10091 ft 284 kts 174°
2026-05-07 15:27 55.40730 37.01264 9716 ft 293 kts 150°
2026-05-07 15:27 55.39343 37.03995 9233 ft 307 kts 121°
2026-05-07 15:28 55.38792 37.07571 8888 ft 312 kts 95°
2026-05-07 15:28 55.38766 37.11395 8453 ft 312 kts 99°
2026-05-07 15:28 55.38026 37.14846 8055 ft 297 kts 132°
2026-05-07 15:28 55.37052 37.16469 7750 ft 288 kts 153°
2026-05-07 15:29 55.35193 37.17356 7458 ft 264 kts 190°
2026-05-07 15:29 55.33600 37.16257 7393 ft 237 kts 225°
2026-05-07 15:29 55.32593 37.14050 7351 ft 233 kts 235°
2026-05-07 15:29 55.31623 37.11737 7296 ft 236 kts 234°
2026-05-07 15:30 55.30659 37.09446 7252 ft 235 kts 235°
2026-05-07 15:30 55.29689 37.07144 7201 ft 234 kts 234°
2026-05-07 15:30 55.28716 37.04837 7147 ft 235 kts 235°
2026-05-07 15:30 55.27650 37.02673 7099 ft 237 kts 221°
2026-05-07 15:31 55.26229 37.01173 7039 ft 239 kts 208°
2026-05-07 15:31 55.24707 37.00016 6989 ft 239 kts 206°
2026-05-07 15:31 55.23172 36.98888 6936 ft 239 kts 206°
2026-05-07 15:31 55.21587 36.97991 6885 ft 243 kts 190°
2026-05-07 15:32 55.19895 36.98344 6832 ft 253 kts 162°
2026-05-07 15:32 55.18453 37.00168 6777 ft 265 kts 132°
2026-05-07 15:32 55.17703 37.03134 6726 ft 275 kts 99°
2026-05-07 15:32 55.17954 37.06441 6666 ft 279 kts 64°
2026-05-07 15:33 55.19148 37.09000 6600 ft 275 kts 30°
2026-05-07 15:33 55.20867 37.10364 6551 ft 272 kts 17°
2026-05-07 15:33 55.22622 37.11658 6492 ft 275 kts 21°
2026-05-07 15:33 55.24352 37.13087 6438 ft 275 kts 22°
2026-05-07 15:34 55.26065 37.14552 6382 ft 273 kts 22°
2026-05-07 15:34 55.27779 37.16016 6321 ft 273 kts 22°
2026-05-07 15:34 55.29484 37.17460 6258 ft 272 kts 22°
2026-05-07 15:34 55.31190 37.18891 6199 ft 271 kts 22°
2026-05-07 15:35 55.32894 37.20307 6131 ft 271 kts 21°
2026-05-07 15:35 55.34599 37.21711 6076 ft 270 kts 21°
2026-05-07 15:35 55.36288 37.23099 6015 ft 270 kts 21°
2026-05-07 15:35 55.37990 37.24502 5955 ft 268 kts 21°
2026-05-07 15:36 55.39678 37.25892 5895 ft 267 kts 21°
2026-05-07 15:36 55.41365 37.27279 5835 ft 266 kts 21°
2026-05-07 15:36 55.43050 37.28664 5776 ft 268 kts 21°
2026-05-07 15:36 55.44741 37.30053 5722 ft 268 kts 21°
2026-05-07 15:37 55.46410 37.31427 5660 ft 267 kts 21°
2026-05-07 15:37 55.48097 37.32818 5600 ft 267 kts 21°
2026-05-07 15:37 55.49778 37.34209 5544 ft 266 kts 21°
2026-05-07 15:37 55.51466 37.35603 5303 ft 267 kts 21°
2026-05-07 15:38 55.53124 37.36980 5118 ft 257 kts 21°
2026-05-07 15:38 55.54677 37.38278 5060 ft 244 kts 21°
2026-05-07 15:38 55.56196 37.39551 5007 ft 240 kts 20°
2026-05-07 15:38 55.57706 37.40810 4954 ft 238 kts 20°
2026-05-07 15:39 55.59168 37.42029 4882 ft 226 kts 20°
2026-05-07 15:39 55.60562 37.43194 4805 ft 219 kts 20°
2026-05-07 15:39 55.61931 37.44332 4727 ft 215 kts 19°
2026-05-07 15:39 55.63337 37.44962 4674 ft 201 kts 356°
2026-05-07 15:40 55.64666 37.44698 4435 ft 188 kts 337°
2026-05-07 15:40 55.65891 37.43825 3997 ft 191 kts 332°
2026-05-07 15:40 55.67129 37.42915 3619 ft 193 kts 332°
2026-05-07 15:40 55.68367 37.42021 3408 ft 187 kts 332°
2026-05-07 15:41 55.69381 37.40858 3362 ft 165 kts 308°
2026-05-07 15:41 55.69966 37.39224 3169 ft 157 kts 287°
2026-05-07 15:41 55.70127 37.37342 2953 ft 149 kts 265°
2026-05-07 15:41 55.69890 37.35650 2712 ft 141 kts 246°
2026-05-07 15:42 55.69327 37.34251 2434 ft 140 kts 227°
2026-05-07 15:42 55.68513 37.33313 2216 ft 141 kts 207°
2026-05-07 15:42 55.67621 37.32633 2020 ft 138 kts 208°
2026-05-07 15:42 55.66739 37.31958 1837 ft 137 kts 208°
2026-05-07 15:43 55.65865 37.31288 1642 ft 136 kts 208°
2026-05-07 15:43 55.64998 37.30625 1472 ft 135 kts 208°
2026-05-07 15:43 55.64142 37.29954 1359 ft 136 kts 207°
2026-05-07 15:43 55.63253 37.29283 1156 ft 141 kts 204°
2026-05-07 15:44 55.62352 37.28585 930 ft 141 kts 204°
2026-05-07 15:44 55.61461 37.27913 769 ft 140 kts 206°
2026-05-07 15:44 55.60579 37.27232 665 ft 126 kts 204°
2026-05-07 15:44 55.59926 37.26725 679 ft 79 kts 203°
2026-05-07 15:45 55.59594 37.26479 671 ft 48 kts 202°
2026-05-07 15:45 55.59477 37.26485 669 ft 10 kts 104°
2026-05-07 15:45 55.59505 37.26680 669 ft 0 kts 68°
2026-05-07 15:46 55.59622 37.26983 669 ft 38 kts 46°
2026-05-07 15:46 55.59731 37.27180 671 ft 38 kts 46°
2026-05-07 15:46 55.59906 37.27507 677 ft 36 kts 47°
2026-05-07 15:47 55.60057 37.27786 680 ft 25 kts 47°
2026-05-07 15:47 55.60091 37.27989 680 ft 7 kts 115°
2026-05-07 15:47 55.60139 37.28136 680 ft 17 kts 37°
2026-05-07 15:47 55.60145 37.28145 680 ft 0 kts 37°